Location: St. Louis
(38.6270°N, 90.1994°W)
Time: 07:39:17
(UTC-06:00)

Altair - Pass Details

Date: 02 December 2021
Orbit: 1501 x 1683 km, 47.2° (Epoch: 17 January)

Event Time Altitude Azimuth Distance (km) Brightness Sun altitude
Rises 00:46:47 0° 288° (WNW) 4,635 - -69.4°
Reaches altitude 10° 00:51:28 10° 268° (W) 3,657 - -68.8°
Maximum altitude 00:56:11 15° 236° (SW) 3,267 - -68.2°
Drops below altitude 10° 01:00:57 10° 204° (SSW) 3,690 - -67.5°
Sets 01:05:46 0° 183° (S) 4,700 - -66.8°
